This is the latest recevied weather packets stored in our database for station/object SQ6RR-12. If no packets are shown the sender has not sent any weather packets the latest 1 day(s).
| Time | Temp. | Humidity | Pressure | Rain* | Wind** | Luminosity | Snow |
|---|---|---|---|---|---|---|---|
| 1777964012 | 18.89° C | 64% | 1010.2 hPa | 0 mm | 0 m/s | - | - |
| 1777963735 | 18.89° C | 66% | 1010.3 hPa | 0 mm | 0 m/s | - | - |
| 1777963467 | 18.33° C | 70% | 1010.3 hPa | 0 mm | 0 m/s | - | - |
| 1777963203 | 18.33° C | 76% | 1010.3 hPa | 0 mm | 0 m/s | - | - |
| 1777962931 | 17.78° C | 74% | 1010.4 hPa | 0 mm | 0 m/s | - | - |
| 1777962685 | 17.78° C | 75% | 1010.3 hPa | 0 mm | 0 m/s | - | - |
| 1777962426 | 17.78° C | 76% | 1010.4 hPa | 0 mm | 0 m/s | - | - |
| 1777962150 | 17.78° C | 85% | 1010.4 hPa | 0 mm | 0 m/s | - | - |
| 1777961892 | 18.33° C | 93% | 1010.4 hPa | 0 mm | 0 m/s | - | - |
| 1777961627 | 17.78° C | 10% | 1010.4 hPa | 0 mm | 0 m/s | - | - |
| 1777961349 | 16.11° C | 10% | 1010.4 hPa | 0 mm | 0 m/s | - | - |
| 1777961066 | 15° C | 10% | 1010.4 hPa | 0 mm | 0 m/s | - | - |
| 1777960791 | 14.44° C | 10% | 1010.3 hPa | 0 mm | 0 m/s | - | - |
| 1777960537 | 14.44° C | 10% | 1010.2 hPa | 0 mm | 0 m/s | - | - |
| 1777960255 | 13.89° C | 10% | 1010.1 hPa | 0 mm | 0 m/s | - | - |
| 1777960006 | 13.89° C | 10% | 1010.3 hPa | 0 mm | 0 m/s | - | - |
| 1777959742 | 13.89° C | 10% | 1010.4 hPa | 0 mm | 0 m/s | - | - |
| 1777959465 | 13.89° C | 10% | 1010.4 hPa | 0 mm | 0 m/s | - | - |
| 1777959197 | 13.33° C | 10% | 1010.3 hPa | 0 mm | 0 m/s | - | - |
| 1777958917 | 13.33° C | 10% | 1010.4 hPa | 0 mm | 0 m/s | - | - |
| 1777958652 | 13.33° C | 10% | 1010.4 hPa | 0 mm | 0 m/s | - | - |
| 1777958372 | 13.33° C | 10% | 1010.4 hPa | 0 mm | 0 m/s | - | - |
| 1777958097 | 12.78° C | 10% | 1010.4 hPa | 0 mm | 0 m/s | - | - |
| 1777957817 | 12.78° C | 10% | 1010.4 hPa | 0 mm | 0 m/s | - | - |
| 1777957552 | 12.78° C | 10% | 1010.6 hPa | 0 mm | 0 m/s | - | - |
* Rain latest hour (hover to see other rain measurements)
** Current wind speed in m/s (hover to see current wind gust speed)